Location: Unspecified
(0.0000°N, 0.0000°E)
Time: 05:00:50
(UTC+02:00)

Tiros 1 despin weight - Visible Passes

Search period start: 19 June 2018 00:00
Search period end: 29 June 2018 00:00
Orbit: 594 x 644 km, 48.2° (Epoch: 18 June)

Date Brightness Start Highest point End Pass type
(mag) Time Alt. Az. Time Alt. Az. Time Alt. Az.
19 Jun ? 07:37:12 10° NNW 07:41:34 42° NE 07:45:51 10° ESE visible
21 Jun ? 06:29:49 10° N 06:33:35 25° NE 06:37:19 10° ESE visible
22 Jun ? 06:45:44 10° NNW 06:50:19 68° NE 06:54:52 10° SE visible
23 Jun ? 05:23:01 10° NNE 05:25:35 15° NE 05:28:08 10° E visible
23 Jun ? 07:02:39 10° WNW 07:07:02 42° SW 07:11:22 10° SSE visible
24 Jun ? 05:43:30 32° E 05:43:30 32° E 05:46:37 10° ESE visible
24 Jun ? 07:20:54 10° W 07:23:46 16° SW 07:26:39 10° S visible
25 Jun ? 06:03:05 13° SE 06:03:05 13° SE 06:03:40 10° SE visible
